Home > Weather > Sarnia > Past weeks

Flag for Canada Weather for the Past 2 Weeks in Sarnia, Ontario, Canada

Now
39 °F

Overcast.


Feels Like: 34 °F
Forecast: 33 / 39 °F
Wind: 7 mph from South

Location: Sarnia Airport

Current Time: Feb 8, 2016 at 4:28:41 AM

Latest Report: Feb 8, 2016 at 4:00 AM


Visibility: 9 mi

Pressure: 29.65 "Hg

Humidity: 81%

Dew point: 34 °F

Location of SarniaLocation

Historic Weather in Sarnia — Graph

°F

Sarnia Temperature Yesterday

Maximum temperature yesterday: 45 °F (at 3:00 PM)
Minimum temperature yesterday: 30 °F (at 3:00 AM)
Average temperature yesterday: 37 °F

High & Low Weather Summary for the Past Weeks

 TemperatureHumidityPressure
High57 °F (Feb 3, 12:00 PM)100% (Jan 27, 1:55 AM)30.37 "Hg (Jan 27, 1:55 AM)
Low19 °F (Jan 24, 7:00 AM)48% (Feb 6, 3:00 PM)29.47 "Hg (Feb 3, 7:00 AM)
Average34 °F81%29.93 "Hg
* Reported Jan 24 3:00 AM — Feb 8 3:00 AM, Sarnia, Weather by CustomWeather, © 2016

Note: Actual official high and low records may vary slightly from our data, if they occured in-between our weather recording intervals... More about our weather records

Advertising

Sarnia Weather History for the Previous 24 Hours

 ConditionsComfort  
Time TempWeatherWind HumidityBarometerVisibility
3:00 AM
Mon, Feb 8
39 °FOvercast.7 mph75%29.66 "Hg9 mi
2:00 AM39 °FOvercast.7 mph75%29.67 "Hg9 mi
1:00 AM41 °FOvercast.7 mph70%29.69 "Hg9 mi
12:00 AM41 °FMostly cloudy.6 mph70%29.71 "Hg9 mi
11:00 PM
Sun, Feb 7
41 °FOvercast.10 mph70%29.72 "Hg9 mi
10:00 PM43 °FOvercast.10 mph66%29.75 "Hg9 mi
9:00 PM43 °FOvercast.9 mph66%29.76 "Hg9 mi
8:00 PM43 °FOvercast.12 mph66%29.78 "Hg9 mi
7:00 PM45 °FOvercast.12 mph66%29.78 "Hg9 mi
6:00 PM45 °FOvercast.14 mph71%29.78 "Hg9 mi
5:00 PM45 °FMostly cloudy.15 mph66%29.79 "Hg9 mi
4:00 PM45 °FPartly sunny.16 mph61%29.80 "Hg9 mi
3:00 PM45 °FPartly sunny.17 mph61%29.81 "Hg9 mi
2:00 PM43 °FOvercast.14 mph66%29.84 "Hg9 mi
1:00 PM41 °FOvercast.14 mph70%29.88 "Hg9 mi
12:00 PM39 °FSunny.16 mph70%29.92 "Hg9 mi
11:00 AM37 °FPassing clouds.13 mph75%29.95 "Hg9 mi
10:00 AM34 °FSunny.12 mph87%29.96 "Hg9 mi
9:00 AM32 °FSunny.10 mph87%29.98 "Hg9 mi
8:00 AM30 °FSunny.8 mph86%29.99 "Hg9 mi
7:00 AM30 °FClear.9 mph93%30.02 "Hg8 mi
6:00 AM30 °FClear.9 mph93%30.04 "Hg8 mi
5:00 AM30 °FOvercast.9 mph93%30.06 "Hg9 mi
4:00 AM30 °FPassing clouds.7 mph93%30.08 "Hg9 mi
Weather by CustomWeather, © 2016

See weather overviewHow to use our weather pages